SCP
0 0 0 0 0 0 0 0 0 0 0 0 0 0 0 0 0 0 0 0 0 0 0 0 0 0 0 0 0 0 0 0 0 0 0 0 0 0 0 0 0 0 0 0 0 0 0 0 0
0 0 0 0 0 0 0 0 0 0 0 0 0 0 0 0 0 0 0 0 0 0 0 0 0 0 0 0 0 0 0 0 0 0 0 0 0 0 0 0 0 0 0 0 0 0 0 0 0
0 0 0 0 0 0 0 0 0 0 0 0 0 0 0 0 0 0 0 0 0 0 0 0 0 0 0 0 0 0 0 0 0 0 0 0 0 0 0 0 0 0 0 0 0 0 0 0 0
0 0 0 0 0 0 0 0 0 0 0 0 0 0 0 0 0 0 0 0 0 0 0 0 0 0 0 0 0 0 0 0 0 0 0 0 0 0 0 0 0 0 0 0 0 0 0 0 0
0 0 0 0 0 0 0 -0 0 0 0 0 0 0 0 0 0 0 0 0 0 0 0 0 0 0 0 0 0 0 0 0 0 0 0 0 0 0 0 0 0 0 0 0 0 0 0 0 0
0 0 0 0 0 0 -0 -0 0 0 0 0 0 0 0 0 0 0 0 0 0 0 0 0 0 0 0 0 0 0 0 0 0 0 0 0 0 0 0 0 0 0 0 0 0 0 0 0 0
0 0 0 0 0 0 -0 -0 0 0 0 0 0 0 0 0 0 0 0 0 0 0 0 0 0 0 0 0 0 0 0 0 0 0 0 0 0 0 0 0 0 0 0 0 0 0 0 0 0
0 0 0 0 0 0 0 0 0 0 0 0 0 0 0 0 0 0 0 0 0 0 0 0 0 0 0 0 0 0 0 0 0 0 0 0 0 0 0 0 0 0 0 0 0 0 0 0 0
0 0 0 0 0 0 0 0 0 0 0 0 0 0 0 0 0 0 0 0 0 0 0 0 0 0 0 0 0 0 0 0 0 0 0 0 0 0 0 0 0 0 0 0 0 0 0 0 0
0 0 0 0 0 0 0 0 0 0 0 0 0 0 0 0 0 0 0 0 0 0 0 0 0 0 0 0 0 0 0 0 0 0 0 0 0 0 0 0 0 0 0 0 0 0 0 0 0
0 0 0 0 0 0 0 0 -0 -0 0 0 0 0 0 0 0 0 0 0 0 0 0 0 0 0 0 0 0 0 0 0 0 0 0 0 0 0 0 0 0 0 0 0 0 0 0 0 0
0 0 0 0 0 0 0 0 -0 -0 0 0 0 0 0 0 0 0 0 0 0 0 0 0 0 0 0 0 0 0 0 0 0 0 0 0 0 0 0 0 0 0 0 0 0 0 0 0 0
0 0 0 0 0 0 0 0 -0 -0 -0 0 0 0 0 0 0 0 0 0 0 0 0 0 0 0 0 0 0 0 0 0 0 0 0 0 0 0 0 0 0 0 0 0 0 0 0 0 0
0 0 0 0 0 0 0 0 0 -0 0 0 0 0 0 0 0 0 0 0 0 0 0 0 0 0 0 0 0 0 0 0 0 0 0 0 0 0 0 0 0 0 0 0 0 0 0 0 0
0 0 0 0 0 0 0 0 0 0 0 0 0 0 0 0 0 0 0 0 0 0 0 0 0 0 0 0 0 0 0 0 0 0 0 0 0 0 0 0 0 0 0 0 0 0 0 0 0
0 0 0 0 0 0 0 0 0 0 0 0 0 0 0 0 0 0 0 0 0 0 0 0 0 0 0 0 0 0 0 0 0 0 0 0 0 0 0 0 0 0 0 0 0 0 0 0 0
0 0 0 0 0 0 0 0 0 0 0 0 0 0 0 0 0 0 0 0 0 0 0 0 0 0 0 0 0 0 0 0 0 0 0 0 0 0 0 0 0 0 0 0 0 0 0 0 0
0 0 0 0 0 0 0 0 0 0 0 0 0 0 0 0 0 0 0 0 0 0 0 0 0 0 0 0 0 0 0 0 0 0 0 0 0 0 0 0 0 0 0 0 0 0 0 0 0
0 0 0 0 0 0 0 0 0 0 0 0 0 0 0 0 0 0 0 0 0 0 0 0 0 0 0 0 0 0 0 0 0 0 0 0 0 0 0 0 0 0 0 0 0 0 0 0 0
0 0 0 0 0 0 0 0 0 0 0 0 0 0 0 0 0 0 0 0 0 0 0 0 0 0 0 0 0 0 0 0 0 0 0 0 0 0 0 0 0 0 0 0 0 0 0 0 0
0 0 0 0 0 0 0 0 0 0 0 0 0 0 0 0 0 0 0 0 0 0 0 0 0 0 0 0 0 0 0 0 0 0 0 0 0 0 0 0 0 0 0 0 0 0 0 0 0
0 0 0 0 0 0 0 0 0 0 0 0 0 0 0 0 0 0 0 0 0 0 0 0 0 0 0 0 0 0 0 0 0 0 0 0 0 0 0 0 0 0 0 0 0 0 0 0 0
0 0 0 0 0 0 0 0 0 0 0 0 0 0 0 0 0 0 0 0 0 0 0 0 0 0 0 0 0 0 0 0 0 0 0 0 0 0 0 0 0 0 0 0 0 0 0 0 0
0 0 0 0 0 0 0 0 0 0 0 0 0 0 0 0 0 0 0 0 0 0 0 0 0 0 0 0 0 0 0 0 0 0 0 0 0 0 0 0 0 0 0 0 0 0 0 0 0
0 0 0 0 0 0 0 0 0 0 0 0 0 0 0 0 0 0 0 0 0 0 0 0 0 0 0 0 0 0 0 0 0 0 0 0 0 0 0 0 0 0 0 0 0 0 0 0 0
0 0 0 0 0 0 0 0 0 0 0 0 0 0 0 0 0 0 0 0 0 0 0 0 0 0 0 0 0 0 0 0 0 0 0 0 0 0 0 0 0 0 0 0 0 0 0 0 0
0 0 0 0 0 0 0 0 0 0 0 0 0 0 0 0 0 0 0 0 0 0 0 0 0 0 0 0 0 0 0 0 0 0 0 0 0 0 0 0 0 0 0 0 0 0 0 0 0
0 0 0 0 0 0 0 0 0 0 0 0 0 0 0 0 0 0 0 0 0 -0 0 0 0 0 0 0 0 0 0 0 0 0 0 0 0 0 0 0 0 0 0 0 0 0 0 0 0
0 0 0 0 0 0 0 0 0 0 0 0 0 0 0 0 0 0 0 0 0 -0 0 0 0 0 0 0 0 0 0 0 0 0 0 0 0 0 0 0 0 0 0 0 0 0 0 0 0
0 0 0 0 0 0 0 0 0 0 0 0 0 0 0 0 0 0 0 0 0 -0 0 0 0 0 0 0 0 0 0 0 0 0 0 0 0 0 0 0 0 0 0 0 0 0 0 0 0
Wind_Speed
7 3 2 4 6 4 3 4 2 2 1 0 0 2 4 3 3 2 1 1 1 3 3 5 6 7 7 8 8 8 8 9 9 9 9 9 9 9 9 9 9 9 9 10 10 10 11 11 10
2 2 5 5 5 1 4 4 3 3 2 1 2 2 3 1 1 1 1 1 2 4 3 4 6 7 7 7 8 7 8 8 8 8 8 8 8 8 8 8 8 8 9 9 10 10 10 10 9
1 3 5 5 3 5 4 2 3 2 1 1 2 2 1 0 1 1 2 0 2 3 3 3 6 7 7 7 7 7 7 8 8 8 8 7 7 8 8 8 8 8 8 8 9 10 10 9 9
3 5 5 4 3 4 4 2 1 1 2 2 2 2 1 1 2 2 1 2 3 3 3 3 5 6 6 6 6 6 7 7 8 8 8 7 7 7 7 7 7 7 8 8 9 9 9 9 9
4 4 3 0 4 3 3 2 1 0 1 1 1 2 0 2 2 2 2 2 3 3 2 3 4 5 5 5 5 5 6 6 7 8 7 7 6 6 6 6 7 7 8 8 8 8 8 8 8
4 4 3 4 4 3 3 2 0 0 0 1 1 2 1 2 3 2 2 2 2 3 2 2 3 4 4 4 4 4 5 5 6 7 7 6 6 6 6 6 6 6 7 8 8 8 8 8 8
4 4 3 3 3 3 3 1 1 1 0 1 1 2 1 2 2 2 2 3 3 3 2 2 2 2 3 3 3 3 4 5 6 6 6 6 5 6 5 5 5 5 7 7 7 8 8 8 7
4 4 1 2 3 3 2 0 0 1 2 1 1 3 2 2 1 3 3 4 3 3 3 2 2 1 1 1 2 3 4 4 5 6 6 5 5 5 5 4 5 5 5 7 7 7 8 8 7
3 3 3 4 4 3 1 0 1 1 1 1 1 1 1 1 2 3 3 3 2 2 2 2 2 1 1 1 2 3 3 4 4 4 5 5 3 3 3 4 5 5 4 6 7 7 7 7 7
3 3 6 3 3 2 1 0 1 1 1 1 1 2 2 2 2 2 1 1 1 0 1 1 1 1 1 1 1 1 2 2 3 3 3 3 3 3 3 4 4 4 4 5 6 7 7 5 3
2 4 3 2 1 1 1 1 1 2 3 3 3 2 1 2 1 1 1 1 2 1 0 1 1 1 1 1 1 1 1 1 2 3 3 3 3 2 2 2 2 3 3 2 4 4 3 3 2
1 2 1 2 1 1 2 1 1 3 5 3 2 1 1 2 2 2 2 2 1 0 1 1 0 0 0 0 1 1 1 1 1 2 3 3 2 2 2 2 2 1 1 1 2 2 3 3 3
2 2 2 2 1 1 0 2 2 5 4 2 1 1 1 2 2 2 1 1 1 1 1 1 1 1 1 1 1 1 1 1 2 2 2 3 2 2 2 2 2 1 1 1 2 3 3 3 2
2 2 3 3 2 1 1 3 2 6 2 1 1 1 1 1 1 0 1 1 1 2 2 1 1 0 1 1 1 1 1 1 2 2 2 2 2 2 2 2 2 2 1 1 2 3 3 2 2
0 2 4 2 1 1 0 4 5 5 1 1 1 1 1 1 2 1 1 2 2 2 2 1 1 0 1 1 1 1 1 1 1 1 2 2 2 2 2 2 2 2 2 2 2 2 2 2 2
1 1 3 3 1 1 2 7 5 2 0 2 2 2 1 1 2 2 2 2 2 2 1 1 1 0 0 1 1 1 1 1 1 1 1 2 2 2 2 2 2 2 2 2 3 2 2 2 2
1 2 4 4 1 1 3 7 5 2 1 2 3 2 1 2 3 3 3 2 2 2 2 2 1 1 0 1 1 2 2 2 1 1 1 1 1 2 2 2 1 2 2 2 3 3 2 2 2
4 3 3 4 3 1 3 7 7 4 2 3 3 3 2 2 3 3 3 3 3 2 2 2 2 2 1 1 1 2 2 2 2 1 1 2 1 2 1 1 1 2 2 2 2 3 2 2 2
2 3 5 5 3 2 5 8 8 6 3 4 4 4 4 4 3 2 2 3 3 4 3 3 3 2 2 1 1 1 1 1 1 1 2 2 2 2 2 1 1 1 1 2 2 3 3 2 2
3 4 4 4 2 2 5 9 8 6 5 6 6 5 4 3 3 3 3 3 3 3 3 3 3 2 2 1 1 1 1 1 1 2 3 3 3 2 2 1 1 1 1 2 2 2 2 2 2
5 6 6 5 5 2 3 7 5 4 3 3 3 3 3 3 3 2 2 2 3 3 2 2 2 2 2 2 2 2 2 1 1 2 2 3 3 3 2 2 2 1 1 2 2 2 3 2 2
6 5 5 4 2 4 0 6 7 4 4 5 4 3 3 3 2 1 1 1 2 2 2 2 2 3 3 2 3 2 2 1 1 1 1 2 2 2 2 2 1 1 1 1 1 1 1 2 2
4 1 3 3 3 3 2 4 9 2 6 7 5 4 3 2 2 1 1 1 1 1 2 2 2 3 3 3 3 2 2 1 1 2 2 2 1 2 2 1 1 1 1 0 1 1 1 1 2
3 3 2 1 1 5 6 6 10 5 7 4 3 3 3 2 1 1 1 0 1 2 2 2 2 3 3 3 3 2 2 2 2 2 1 1 1 1 2 1 1 1 0 0 0 1 2 1 1
3 4 2 3 2 7 3 6 11 7 4 5 5 4 3 2 1 1 1 1 1 2 2 2 2 2 2 2 2 2 1 1 1 1 1 1 1 1 2 1 0 0 0 0 0 1 1 1 2
4 6 6 6 6 6 2 9 9 4 3 2 3 2 2 1 1 1 1 1 0 0 1 1 2 2 2 2 2 2 2 1 1 1 1 1 1 1 2 1 1 1 1 0 0 1 1 1 2
4 4 3 3 0 3 7 7 9 3 2 1 1 1 1 1 2 2 2 1 1 0 0 1 1 1 1 1 1 2 2 1 1 1 1 1 1 1 2 1 1 1 1 0 1 1 1 1 1
3 4 4 4 3 5 6 6 6 4 4 3 2 2 2 1 1 1 1 1 1 1 0 1 1 1 1 1 1 1 1 1 1 1 1 1 2 1 1 1 1 1 1 0 0 0 1 1 1
4 3 3 3 4 5 5 8 5 6 5 5 5 3 3 3 2 2 1 1 0 0 0 0 0 1 1 1 1 1 1 1 1 1 1 1 1 1 1 1 0 0 0 0 0 1 1 1 1
4 6 6 5 5 5 5 10 2 3 3 4 4 3 2 2 2 1 1 1 0 0 0 0 0 0 1 1 1 1 1 1 1 1 1 1 1 1 1 1 1 1 1 1 1 1 1 1 2
Wind_Direction
340 350 54 57 57 56 241 247 234 264 226 222 118 118 130 139 163 193 308 114 129 150 164 166 157 146 142 142 142 138 138 136 133 129 126 125 125 124 123 120 118 114 111 108 106 102 96 93 91
331 17 54 62 94 163 257 244 229 235 218 102 59 82 88 81 6 42 326 291 147 148 149 156 151 143 141 141 143 143 142 142 140 137 132 128 127 126 126 124 121 119 116 113 107 103 98 95 94
2 49 80 82 132 189 228 239 232 282 330 108 84 57 109 155 336 277 294 225 132 136 138 149 148 144 144 142 144 147 144 145 144 141 137 134 128 129 129 125 123 122 121 118 111 104 100 97 95
64 48 59 87 213 220 224 260 268 308 2 38 118 84 35 18 311 296 346 111 123 127 129 143 145 144 144 141 141 144 144 143 144 140 137 136 134 125 125 125 124 123 122 118 112 107 103 99 98
59 78 76 253 242 247 255 285 295 203 318 346 113 133 209 355 2 30 71 111 125 124 118 138 143 144 146 146 144 146 146 146 145 140 133 134 134 129 122 125 125 124 120 118 112 109 106 102 101
60 71 114 224 242 268 277 286 51 62 303 357 93 139 225 1 17 15 51 88 108 122 110 121 140 134 137 144 148 150 153 150 148 144 135 132 130 130 129 121 124 129 125 118 115 114 111 107 105
107 112 180 212 237 262 273 280 133 189 228 270 202 147 290 340 359 27 56 70 71 84 89 87 109 133 133 132 145 150 150 145 141 139 132 125 119 117 119 123 118 123 124 123 120 119 115 108 104
120 114 176 225 219 247 284 28 150 160 225 323 120 152 247 288 19 55 64 70 70 66 65 60 51 73 105 127 132 130 130 132 130 129 122 114 108 108 109 115 121 119 124 124 118 114 112 108 101
89 96 216 221 205 237 315 63 344 11 92 27 35 221 271 98 82 74 65 56 55 43 39 44 48 47 65 105 110 116 120 119 118 120 122 117 104 100 97 104 110 111 119 126 118 112 109 102 97
98 183 223 219 200 229 324 236 286 43 9 341 330 339 37 87 111 124 132 174 172 293 355 17 24 42 64 86 100 101 107 114 112 112 118 117 113 108 99 92 96 94 96 119 117 111 102 96 88
147 205 229 265 237 232 286 305 318 166 246 240 245 266 120 114 133 185 205 218 229 230 279 335 356 15 66 99 118 114 112 106 107 114 114 117 113 108 99 92 78 76 71 95 107 104 98 98 95
178 262 254 293 322 281 241 250 286 217 238 265 246 214 162 162 193 224 228 246 260 215 279 306 333 68 70 111 144 139 134 128 131 130 130 128 130 131 128 123 117 97 96 99 109 110 103 100 99
230 277 294 289 331 289 260 250 246 263 274 307 355 46 200 209 231 248 252 285 306 283 295 294 254 166 156 145 164 139 149 146 143 141 143 140 147 157 147 141 130 126 119 124 128 120 117 110 101
238 276 292 291 277 264 220 277 250 267 290 339 21 276 265 244 247 314 342 314 296 282 280 280 279 189 154 156 163 154 143 141 133 138 142 145 147 154 154 151 146 146 138 130 135 133 130 121 113
328 324 316 282 250 261 8 294 249 270 340 320 307 276 339 351 13 341 288 290 284 284 282 292 269 200 161 153 156 136 123 124 122 125 132 136 139 151 151 153 161 159 144 132 125 118 116 115 103
34 18 285 285 215 251 137 264 275 297 201 276 286 290 308 319 338 336 331 327 342 357 334 322 344 339 163 150 153 139 130 120 110 110 125 131 130 140 140 146 159 150 139 138 136 126 114 114 109
12 256 253 291 270 168 183 255 278 299 210 270 283 279 279 316 342 346 347 347 0 0 358 13 28 34 144 132 127 114 108 96 85 83 89 95 103 121 135 144 141 135 135 133 138 127 128 131 124
235 241 258 259 287 281 237 257 282 295 247 260 280 284 280 289 295 322 353 5 13 13 17 25 41 41 68 105 98 93 82 74 68 73 68 71 81 92 114 128 123 124 128 131 137 133 122 127 129
197 217 259 268 283 261 250 264 274 281 273 268 272 270 266 266 292 351 13 20 26 22 24 28 42 40 56 88 127 126 115 92 73 65 67 75 72 83 97 110 125 127 147 147 138 138 133 119 119
230 257 272 292 304 267 277 275 268 254 241 238 242 245 248 269 323 357 12 21 24 19 14 22 36 41 51 60 118 124 117 103 87 65 54 59 67 68 80 98 128 150 144 129 125 129 138 138 141
234 229 245 269 320 312 307 293 262 260 241 241 237 242 250 240 252 297 351 358 11 13 3 13 31 42 43 50 75 74 75 70 66 52 46 39 56 65 66 70 79 96 150 165 158 150 146 159 167
244 225 225 243 275 283 203 282 275 251 267 255 250 249 253 262 269 271 294 344 351 347 356 21 41 48 46 58 79 90 92 87 51 57 70 55 62 67 65 69 84 88 96 150 178 158 154 151 171
224 196 201 232 221 275 234 242 277 259 253 250 241 235 239 246 239 256 255 247 325 356 14 25 51 53 47 59 80 95 79 71 71 63 67 59 56 61 60 79 102 99 86 88 141 146 152 164 177
163 77 53 53 103 256 217 205 269 230 225 233 227 228 228 231 240 253 299 9 31 28 37 42 58 52 47 59 69 89 93 76 74 57 50 41 32 39 30 51 78 76 70 131 163 171 171 180 175
139 111 23 333 297 250 208 223 252 247 228 212 217 225 231 215 217 237 320 355 32 32 37 46 64 53 42 54 54 61 77 87 91 72 47 27 16 2 343 353 28 69 5 7 123 154 171 177 173
193 165 174 209 232 272 233 236 256 260 255 232 223 221 216 207 203 206 215 220 59 40 52 60 76 66 48 54 43 43 55 58 48 40 42 27 349 330 335 327 339 27 56 43 127 159 175 179 188
166 199 175 149 195 274 257 268 290 259 280 258 234 221 234 221 208 213 223 211 193 251 9 65 93 70 54 51 51 48 51 48 38 28 28 19 355 345 357 349 352 5 36 106 166 165 179 178 197
172 149 129 161 195 250 270 257 250 241 239 232 224 231 241 234 249 260 241 229 200 204 154 61 63 79 62 53 43 45 46 42 40 45 29 6 350 350 352 354 1 1 12 30 160 181 191 185 199
154 168 176 179 190 199 259 264 230 220 212 206 217 220 222 223 226 228 240 253 158 95 111 103 54 39 34 24 21 32 27 35 44 39 358 349 349 340 327 313 292 297 289 250 205 223 216 203 215
194 191 176 191 228 214 242 267 263 222 206 190 207 219 218 205 205 204 203 175 105 48 288 167 100 41 357 356 359 353 8 28 32 6 346 349 329 323 314 309 294 286 289 259 226 220 218 212 217